Location: Hope
(40.9110°N, 74.9680°W)
Time: 11:04:27
(UTC-04:00)

Tiangong 2 - Pass Details

Date: 28 January 2019
Orbit: 378 x 389 km, 42.8° (Epoch: 20 April)

Event Time Altitude Azimuth Distance (km) Brightness Sun altitude
Exits shadow 04:42:11 13° 115° (ESE) 1,248 4.4 -28.8°
Drops below altitude 10° 04:42:34 10° 115° (ESE) 1,403 4.7 -28.7°
Sets 04:44:39 0° 113° (ESE) 2,258 6.0 -28.3°
